Index of /20260430/WXO-DD/model_gdps/15km/12/195
Name Last modified Size Description
Parent Directory -
20260430T12Z_MSC_GDPS_AirTemp_AGL-120m_LatLon0.15_PT195H.grib2 2026-04-30 16:28 908K
20260430T12Z_MSC_GDPS_AirTemp_AGL-2m_LatLon0.15_PT195H.grib2 2026-04-30 16:28 1.0M
20260430T12Z_MSC_GDPS_AirTemp_AGL-40m_LatLon0.15_PT195H.grib2 2026-04-30 16:28 807K
20260430T12Z_MSC_GDPS_AirTemp_AGL-80m_LatLon0.15_PT195H.grib2 2026-04-30 16:28 797K
20260430T12Z_MSC_GDPS_AirTemp_IsbL-0001_LatLon0.15_PT195H.grib2 2026-04-30 16:28 665K
20260430T12Z_MSC_GDPS_AirTemp_IsbL-0005_LatLon0.15_PT195H.grib2 2026-04-30 16:28 696K
20260430T12Z_MSC_GDPS_AirTemp_IsbL-0500_LatLon0.15_PT195H.grib2 2026-04-30 16:28 1.0M
20260430T12Z_MSC_GDPS_AirTemp_IsbL-0700_LatLon0.15_PT195H.grib2 2026-04-30 16:28 960K
20260430T12Z_MSC_GDPS_AirTemp_IsbL-0850_LatLon0.15_PT195H.grib2 2026-04-30 16:28 1.1M
20260430T12Z_MSC_GDPS_AirTemp_IsbL-0925_LatLon0.15_PT195H.grib2 2026-04-30 16:28 1.1M
20260430T12Z_MSC_GDPS_AirTemp_IsbL-1000_LatLon0.15_PT195H.grib2 2026-04-30 16:28 904K
20260430T12Z_MSC_GDPS_Albedo_Sfc_LatLon0.15_PT195H.grib2 2026-04-30 16:28 242K
20260430T12Z_MSC_GDPS_ConvectivePrecip-Accum_Sfc_LatLon0.15_PT195H.grib2 2026-04-30 16:28 3.9M
20260430T12Z_MSC_GDPS_DewPointDepression_AGL-2m_LatLon0.15_PT195H.grib2 2026-04-30 16:28 767K
20260430T12Z_MSC_GDPS_DewPointDepression_IsbL-0500_LatLon0.15_PT195H.grib2 2026-04-30 16:28 1.0M
20260430T12Z_MSC_GDPS_DewPointDepression_IsbL-0700_LatLon0.15_PT195H.grib2 2026-04-30 16:28 1.1M
20260430T12Z_MSC_GDPS_DewPointDepression_IsbL-0850_LatLon0.15_PT195H.grib2 2026-04-30 16:28 1.2M
20260430T12Z_MSC_GDPS_DewPointDepression_IsbL-0925_LatLon0.15_PT195H.grib2 2026-04-30 16:28 1.0M
20260430T12Z_MSC_GDPS_DewPointDepression_IsbL-1000_LatLon0.15_PT195H.grib2 2026-04-30 16:28 1.0M
20260430T12Z_MSC_GDPS_DewPoint_AGL-2m_LatLon0.15_PT195H.grib2 2026-04-30 16:28 616K
20260430T12Z_MSC_GDPS_DownwardLongwaveRadiationFlux-Accum_Sfc_LatLon0.15_PT195H.grib2 2026-04-30 16:28 667K
20260430T12Z_MSC_GDPS_DownwardShortwaveRadiationFlux-Accum_Sfc_LatLon0.15_PT195H.grib2 2026-04-30 16:28 855K
20260430T12Z_MSC_GDPS_FreezingRain-Accum_Sfc_LatLon0.15_PT195H.grib2 2026-04-30 16:28 507K
20260430T12Z_MSC_GDPS_GeopotentialHeight_IsbL-0001_LatLon0.15_PT195H.grib2 2026-04-30 16:28 443K
20260430T12Z_MSC_GDPS_GeopotentialHeight_IsbL-0005_LatLon0.15_PT195H.grib2 2026-04-30 16:28 496K
20260430T12Z_MSC_GDPS_GeopotentialHeight_IsbL-0500_LatLon0.15_PT195H.grib2 2026-04-30 16:28 534K
20260430T12Z_MSC_GDPS_GeopotentialHeight_IsbL-0700_LatLon0.15_PT195H.grib2 2026-04-30 16:28 698K
20260430T12Z_MSC_GDPS_GeopotentialHeight_IsbL-0850_LatLon0.15_PT195H.grib2 2026-04-30 16:28 717K
20260430T12Z_MSC_GDPS_GeopotentialHeight_IsbL-0925_LatLon0.15_PT195H.grib2 2026-04-30 16:28 738K
20260430T12Z_MSC_GDPS_GeopotentialHeight_IsbL-1000_LatLon0.15_PT195H.grib2 2026-04-30 16:28 791K
20260430T12Z_MSC_GDPS_IcePellets-Accum_Sfc_LatLon0.15_PT195H.grib2 2026-04-30 16:28 155K
20260430T12Z_MSC_GDPS_LatentHeatNetFlux_Sfc_LatLon0.15_PT195H.grib2 2026-04-30 16:28 544K
20260430T12Z_MSC_GDPS_NetLongwaveRadiationFlux-Accum_Sfc_LatLon0.15_PT195H.grib2 2026-04-30 16:28 893K
20260430T12Z_MSC_GDPS_NetShortwaveRadiationFlux-Accum_Sfc_LatLon0.15_PT195H.grib2 2026-04-30 16:28 853K
20260430T12Z_MSC_GDPS_O3MixingRatio_Sfc_LatLon0.15_PT195H.grib2 2026-04-30 16:46 1.9M
20260430T12Z_MSC_GDPS_O3_EAtm_LatLon0.15_PT195H.grib2 2026-04-30 16:46 2.4M
20260430T12Z_MSC_GDPS_PlanetaryBoundaryLayerHeight_Sfc_LatLon0.15_PT195H.grib2 2026-04-30 16:28 2.5M
20260430T12Z_MSC_GDPS_Precip-Accum_Sfc_LatLon0.15_PT195H.grib2 2026-04-30 16:28 5.4M
20260430T12Z_MSC_GDPS_PrecipRate_Sfc_LatLon0.15_PT195H.grib2 2026-04-30 16:28 3.0M
20260430T12Z_MSC_GDPS_Pressure_MSL_LatLon0.15_PT195H.grib2 2026-04-30 16:28 835K
20260430T12Z_MSC_GDPS_Pressure_Sfc_LatLon0.15_PT195H.grib2 2026-04-30 16:28 1.1M
20260430T12Z_MSC_GDPS_RadiativeTemp_Sfc_LatLon0.15_PT195H.grib2 2026-04-30 16:28 499K
20260430T12Z_MSC_GDPS_Rain-Accum_Sfc_LatLon0.15_PT195H.grib2 2026-04-30 16:28 4.2M
20260430T12Z_MSC_GDPS_RelativeHumidity_AGL-2m_LatLon0.15_PT195H.grib2 2026-04-30 16:28 1.1M
20260430T12Z_MSC_GDPS_Runoff-Accum_Sfc_LatLon0.15_PT195H.grib2 2026-04-30 16:28 130K
20260430T12Z_MSC_GDPS_SensibleHeatNetFlux_Sfc_LatLon0.15_PT195H.grib2 2026-04-30 16:28 481K
20260430T12Z_MSC_GDPS_Snow-Accum_Sfc_LatLon0.15_PT195H.grib2 2026-04-30 16:28 2.1M
20260430T12Z_MSC_GDPS_SnowDepth_Sfc_LatLon0.15_PT195H.grib2 2026-04-30 16:28 1.7M
20260430T12Z_MSC_GDPS_SoilTemp_DBS-0to10cm_LatLon0.15_PT195H.grib2 2026-04-30 16:28 515K
20260430T12Z_MSC_GDPS_SoilTemp_Sfc_LatLon0.15_PT195H.grib2 2026-04-30 16:28 579K
20260430T12Z_MSC_GDPS_SoilVolumetricWaterContent_DBS-0to10cm_LatLon0.15_PT195H.grib2 2026-04-30 16:28 595K
20260430T12Z_MSC_GDPS_SoilVolumetricWaterContent_DBS-0to1cm_LatLon0.15_PT195H.grib2 2026-04-30 16:28 649K
20260430T12Z_MSC_GDPS_SpecificHumidity_AGL-120m_LatLon0.15_PT195H.grib2 2026-04-30 16:28 1.1M
20260430T12Z_MSC_GDPS_SpecificHumidity_AGL-2m_LatLon0.15_PT195H.grib2 2026-04-30 16:28 1.2M
20260430T12Z_MSC_GDPS_SpecificHumidity_AGL-40m_LatLon0.15_PT195H.grib2 2026-04-30 16:28 1.1M
20260430T12Z_MSC_GDPS_SpecificHumidity_AGL-80m_LatLon0.15_PT195H.grib2 2026-04-30 16:28 1.1M
20260430T12Z_MSC_GDPS_SpecificHumidity_IsbL-0001_LatLon0.15_PT195H.grib2 2026-04-30 16:28 1.1M
20260430T12Z_MSC_GDPS_SpecificHumidity_IsbL-0005_LatLon0.15_PT195H.grib2 2026-04-30 16:28 1.0M
20260430T12Z_MSC_GDPS_SpecificHumidity_IsbL-0500_LatLon0.15_PT195H.grib2 2026-04-30 16:28 1.5M
20260430T12Z_MSC_GDPS_SpecificHumidity_IsbL-0700_LatLon0.15_PT195H.grib2 2026-04-30 16:28 1.6M
20260430T12Z_MSC_GDPS_SpecificHumidity_IsbL-0850_LatLon0.15_PT195H.grib2 2026-04-30 16:28 2.0M
20260430T12Z_MSC_GDPS_SpecificHumidity_IsbL-0925_LatLon0.15_PT195H.grib2 2026-04-30 16:28 1.6M
20260430T12Z_MSC_GDPS_SpecificHumidity_IsbL-1000_LatLon0.15_PT195H.grib2 2026-04-30 16:28 1.5M
20260430T12Z_MSC_GDPS_SpecificHumidity_Sfc_LatLon0.15_PT195H.grib2 2026-04-30 16:28 687K
20260430T12Z_MSC_GDPS_Thickness_IsbL-0850to0700_LatLon0.15_PT195H.grib2 2026-04-30 16:28 470K
20260430T12Z_MSC_GDPS_Thickness_IsbL-1000to0500_LatLon0.15_PT195H.grib2 2026-04-30 16:28 375K
20260430T12Z_MSC_GDPS_Thickness_IsbL-1000to0850_LatLon0.15_PT195H.grib2 2026-04-30 16:28 491K
20260430T12Z_MSC_GDPS_TotalCloudCover_Sfc_LatLon0.15_PT195H.grib2 2026-04-30 16:28 838K
20260430T12Z_MSC_GDPS_UVIndex-ClearSky_Sfc_LatLon0.15_PT195H.grib2 2026-04-30 16:46 1.0M
20260430T12Z_MSC_GDPS_UVIndex_Sfc_LatLon0.15_PT195H.grib2 2026-04-30 16:46 1.5M
20260430T12Z_MSC_GDPS_UpwardLongwaveRadiationFlux_NTAtm_LatLon0.15_PT195H.grib2 2026-04-30 16:28 850K
20260430T12Z_MSC_GDPS_VerticalVelocity_IsbL-0500_LatLon0.15_PT195H.grib2 2026-04-30 16:28 1.3M
20260430T12Z_MSC_GDPS_VerticalVelocity_IsbL-0700_LatLon0.15_PT195H.grib2 2026-04-30 16:28 1.1M
20260430T12Z_MSC_GDPS_VerticalVelocity_IsbL-0850_LatLon0.15_PT195H.grib2 2026-04-30 16:28 1.6M
20260430T12Z_MSC_GDPS_WindDir_AGL-10m_LatLon0.15_PT195H.grib2 2026-04-30 16:28 1.3M
20260430T12Z_MSC_GDPS_WindDir_AGL-120m_LatLon0.15_PT195H.grib2 2026-04-30 16:28 1.4M
20260430T12Z_MSC_GDPS_WindDir_AGL-40m_LatLon0.15_PT195H.grib2 2026-04-30 16:28 1.4M
20260430T12Z_MSC_GDPS_WindDir_AGL-80m_LatLon0.15_PT195H.grib2 2026-04-30 16:28 1.4M
20260430T12Z_MSC_GDPS_WindDir_IsbL-0001_LatLon0.15_PT195H.grib2 2026-04-30 16:28 652K
20260430T12Z_MSC_GDPS_WindDir_IsbL-0005_LatLon0.15_PT195H.grib2 2026-04-30 16:28 810K
20260430T12Z_MSC_GDPS_WindDir_IsbL-0500_LatLon0.15_PT195H.grib2 2026-04-30 16:28 1.4M
20260430T12Z_MSC_GDPS_WindDir_IsbL-0700_LatLon0.15_PT195H.grib2 2026-04-30 16:28 1.6M
20260430T12Z_MSC_GDPS_WindDir_IsbL-0850_LatLon0.15_PT195H.grib2 2026-04-30 16:28 1.9M
20260430T12Z_MSC_GDPS_WindDir_IsbL-0925_LatLon0.15_PT195H.grib2 2026-04-30 16:28 2.0M
20260430T12Z_MSC_GDPS_WindDir_IsbL-1000_LatLon0.15_PT195H.grib2 2026-04-30 16:28 2.1M
20260430T12Z_MSC_GDPS_WindGust-Max_AGL-10m_LatLon0.15_PT195H.grib2 2026-04-30 16:28 2.2M
20260430T12Z_MSC_GDPS_WindGust-Min_AGL-10m_LatLon0.15_PT195H.grib2 2026-04-30 16:28 2.2M
20260430T12Z_MSC_GDPS_WindGust_AGL-10m_LatLon0.15_PT195H.grib2 2026-04-30 16:28 2.2M
20260430T12Z_MSC_GDPS_WindSpeed_AGL-10m_LatLon0.15_PT195H.grib2 2026-04-30 16:28 1.1M
20260430T12Z_MSC_GDPS_WindSpeed_AGL-120m_LatLon0.15_PT195H.grib2 2026-04-30 16:28 1.2M
20260430T12Z_MSC_GDPS_WindSpeed_AGL-40m_LatLon0.15_PT195H.grib2 2026-04-30 16:28 1.2M
20260430T12Z_MSC_GDPS_WindSpeed_AGL-80m_LatLon0.15_PT195H.grib2 2026-04-30 16:28 1.2M
20260430T12Z_MSC_GDPS_WindSpeed_IsbL-0001_LatLon0.15_PT195H.grib2 2026-04-30 16:28 650K
20260430T12Z_MSC_GDPS_WindSpeed_IsbL-0005_LatLon0.15_PT195H.grib2 2026-04-30 16:28 695K
20260430T12Z_MSC_GDPS_WindSpeed_IsbL-0500_LatLon0.15_PT195H.grib2 2026-04-30 16:28 1.1M
20260430T12Z_MSC_GDPS_WindSpeed_IsbL-0700_LatLon0.15_PT195H.grib2 2026-04-30 16:28 1.5M
20260430T12Z_MSC_GDPS_WindSpeed_IsbL-0850_LatLon0.15_PT195H.grib2 2026-04-30 16:28 1.8M
20260430T12Z_MSC_GDPS_WindSpeed_IsbL-0925_LatLon0.15_PT195H.grib2 2026-04-30 16:28 1.8M
20260430T12Z_MSC_GDPS_WindSpeed_IsbL-1000_LatLon0.15_PT195H.grib2 2026-04-30 16:28 1.8M
20260430T12Z_MSC_GDPS_WindU_AGL-10m_LatLon0.15_PT195H.grib2 2026-04-30 16:28 1.3M
20260430T12Z_MSC_GDPS_WindU_AGL-120m_LatLon0.15_PT195H.grib2 2026-04-30 16:28 972K
20260430T12Z_MSC_GDPS_WindU_AGL-40m_LatLon0.15_PT195H.grib2 2026-04-30 16:28 968K
20260430T12Z_MSC_GDPS_WindU_AGL-80m_LatLon0.15_PT195H.grib2 2026-04-30 16:28 972K
20260430T12Z_MSC_GDPS_WindU_IsbL-0001_LatLon0.15_PT195H.grib2 2026-04-30 16:28 503K
20260430T12Z_MSC_GDPS_WindU_IsbL-0005_LatLon0.15_PT195H.grib2 2026-04-30 16:28 691K
20260430T12Z_MSC_GDPS_WindU_IsbL-0500_LatLon0.15_PT195H.grib2 2026-04-30 16:28 1.1M
20260430T12Z_MSC_GDPS_WindU_IsbL-0700_LatLon0.15_PT195H.grib2 2026-04-30 16:28 1.2M
20260430T12Z_MSC_GDPS_WindU_IsbL-0850_LatLon0.15_PT195H.grib2 2026-04-30 16:28 1.4M
20260430T12Z_MSC_GDPS_WindU_IsbL-0925_LatLon0.15_PT195H.grib2 2026-04-30 16:28 1.5M
20260430T12Z_MSC_GDPS_WindU_IsbL-1000_LatLon0.15_PT195H.grib2 2026-04-30 16:28 1.4M
20260430T12Z_MSC_GDPS_WindV_AGL-10m_LatLon0.15_PT195H.grib2 2026-04-30 16:28 1.6M
20260430T12Z_MSC_GDPS_WindV_AGL-120m_LatLon0.15_PT195H.grib2 2026-04-30 16:28 1.0M
20260430T12Z_MSC_GDPS_WindV_AGL-40m_LatLon0.15_PT195H.grib2 2026-04-30 16:28 969K
20260430T12Z_MSC_GDPS_WindV_AGL-80m_LatLon0.15_PT195H.grib2 2026-04-30 16:28 1.0M
20260430T12Z_MSC_GDPS_WindV_IsbL-0001_LatLon0.15_PT195H.grib2 2026-04-30 16:28 785K
20260430T12Z_MSC_GDPS_WindV_IsbL-0005_LatLon0.15_PT195H.grib2 2026-04-30 16:28 860K
20260430T12Z_MSC_GDPS_WindV_IsbL-0500_LatLon0.15_PT195H.grib2 2026-04-30 16:28 1.1M
20260430T12Z_MSC_GDPS_WindV_IsbL-0700_LatLon0.15_PT195H.grib2 2026-04-30 16:28 1.2M
20260430T12Z_MSC_GDPS_WindV_IsbL-0850_LatLon0.15_PT195H.grib2 2026-04-30 16:28 1.4M
20260430T12Z_MSC_GDPS_WindV_IsbL-0925_LatLon0.15_PT195H.grib2 2026-04-30 16:28 1.5M
20260430T12Z_MSC_GDPS_WindV_IsbL-1000_LatLon0.15_PT195H.grib2 2026-04-30 16:28 1.4M